Marshfield, WI

7:20 PM CST on November 18, 2019 (GMT -0600)
Marshfield Municipal

Weather History for KMFI - September, 2019

Change the Weather History Date:

Tuesday, September 3, 2019

  Actual Average Record
Temperature  
Mean Temperature 67 °F -  
Max Temperature 75 °F 76 °F 90 °F (1925)
Min Temperature 57 °F 51 °F 30 °F (1946)
Cooling Degree Days 2    
Growing Degree Days 17 (Base 50)    
Moisture  
Dew Point 62 °F    
Average Humidity 85    
Maximum Humidity 100    
Minimum Humidity 51    
Precipitation  
Precipitation 1.39 in - - ()
Sea Level Pressure  
Sea Level Pressure 29.82 in    
Wind  
Wind Speed 14 mph (WSW)    
Max Wind Speed 31 mph    
Max Gust Speed 48 mph    
Visibility 7 miles    
Events Fog , Rain , Thunderstorm    
Averages and records for this station are not official NWS values.
T = Trace of Precipitation, MM = Missing Value Source: NWS Daily Summary

Daily Weather History Graph

Daily Weather History Graph

Search for Another Location

Airport or City:

Astronomy

Sep. 03, 2019 Rise Set
Actual Time 6:25 AM CDT 7:34 PM CDT
Civil Twilight 5:55 AM CDT 8:04 PM CDT
Nautical Twilight 5:19 AM CDT 8:39 PM CDT
Astronomical Twilight 4:41 AM CDT 9:17 PM CDT
Moon 11:29 AM CDT (9/3) 10:18 PM CDT (9/3)
Length of Visible Light 14h 08m
Length of Day
13h 08m
Waxing Crescent, 25% of the Moon is Illuminated
Sep 3
Waxing Crescent
Sep 5
First Quarter
Sep 13
Full
Sep 21
Last Quarter
Sep 28
New

Hourly Weather History & Observations

Time (CDT) Temp. Dew Point Humidity Pressure Visibility Wind Dir Wind Speed Gust Speed Precip Events Conditions
12:36 AM 66.0 °F 62.1 °F 87% 29.93 in 10.0 mi South 12.7 mph - 0.00 in Rain , Thunderstorm Light Rain
12:54 AM 66.0 °F 63.0 °F 90% 30.04 in 1.5 mi NW 31.1 mph 48.3 mph 0.15 in Rain , Thunderstorm Heavy Thunderstorms and Rain
12:56 AM 64.9 °F 62.1 °F 90% 30.02 in 1.0 mi NW 21.9 mph 48.3 mph 0.15 in Rain , Thunderstorm Heavy Rain
1:03 AM 62.1 °F 60.1 °F 93% 29.98 in 0.5 mi NW 11.5 mph 48.3 mph 0.46 in Fog , Rain , Thunderstorm Heavy Rain
1:06 AM 62.1 °F 60.1 °F 93% 29.98 in 0.5 mi NW 13.8 mph - 0.53 in Fog , Rain , Thunderstorm Heavy Thunderstorms and Rain
1:15 AM 62.1 °F 60.1 °F 93% 29.98 in 0.8 mi WNW 12.7 mph - 0.84 in Rain , Thunderstorm Heavy Thunderstorms and Rain
1:19 AM 62.1 °F 61.0 °F 96% 29.97 in 1.0 mi WSW 9.2 mph 20.7 mph 0.89 in Rain , Thunderstorm Heavy Rain
1:27 AM 62.1 °F 61.0 °F 96% 29.94 in 1.5 mi SW 9.2 mph - 0.94 in Rain , Thunderstorm Heavy Rain
1:32 AM 62.1 °F 62.1 °F 100% 29.91 in 3.0 mi South 12.7 mph 18.4 mph 0.95 in Rain , Thunderstorm Light Rain
1:41 AM 62.1 °F 62.1 °F 100% 29.87 in 7.0 mi South 16.1 mph - 0.95 in Rain , Thunderstorm Thunderstorms and Rain
1:51 AM 62.6 °F 62.6 °F 100% 29.85 in 10.0 mi South 17.3 mph - 0.96 in Rain Light Rain
1:54 AM 63.0 °F 62.1 °F 97% 29.83 in 10.0 mi South 12.7 mph - 0.96 in Rain Light Rain
2:54 AM 64.9 °F 63.0 °F 93% 29.81 in 10.0 mi South 5.8 mph - 0.00 in Rain Light Rain
3:01 AM 64.9 °F 63.0 °F 93% 29.83 in 10.0 mi SSE 3.5 mph - 0.00 in   Mostly Cloudy
3:10 AM 64.9 °F 63.0 °F 93% 29.83 in 10.0 mi SE 4.6 mph - 0.00 in   Overcast
3:27 AM 64.9 °F 63.0 °F 93% 29.81 in 6.0 mi SSE 5.8 mph - 0.00 in Rain Light Rain
3:54 AM 66.0 °F 64.0 °F 93% 29.79 in 5.0 mi South 8.1 mph - 0.00 in Rain , Thunderstorm Light Rain
3:59 AM 64.9 °F 64.0 °F 97% 29.80 in 5.0 mi SSE 6.9 mph - 0.00 in Rain , Thunderstorm Light Rain
4:27 AM 66.0 °F 64.0 °F 93% 29.78 in 2.5 mi South 11.5 mph - 0.07 in Rain , Thunderstorm Heavy Thunderstorms and Rain
4:43 AM 64.9 °F 64.9 °F 100% 29.77 in 3.0 mi South 6.9 mph - 0.12 in Rain , Thunderstorm Light Rain
4:54 AM 66.0 °F 64.9 °F 96% 29.76 in 2.5 mi South 10.4 mph - 0.19 in Rain , Thunderstorm Heavy Rain
5:06 AM 66.0 °F 64.9 °F 96% 29.76 in 5.0 mi South 11.5 mph - 0.00 in Rain , Thunderstorm Light Thunderstorms and Rain
5:23 AM 66.0 °F 64.9 °F 96% 29.75 in 7.0 mi South 11.5 mph - 0.07 in Rain Light Rain
5:54 AM 66.0 °F 64.9 °F 96% 29.73 in 9.0 mi SSW 11.5 mph 18.4 mph 0.08 in Rain Light Rain
6:54 AM 66.9 °F 66.0 °F 97% 29.73 in 7.0 mi SW 13.8 mph - 0.00 in Rain Light Rain
7:54 AM 68.0 °F 66.9 °F 96% 29.71 in 7.0 mi SW 13.8 mph - 0.01 in   Overcast
8:54 AM 69.1 °F 66.9 °F 93% 29.71 in 6.0 mi SW 12.7 mph - N/A   Overcast
9:45 AM 71.1 °F 68.0 °F 90% 29.72 in 6.0 mi WSW 11.5 mph - 0.00 in   Overcast
9:54 AM 71.1 °F 68.0 °F 90% 29.71 in 7.0 mi West 11.5 mph - 0.00 in   Overcast
10:25 AM 73.0 °F 69.1 °F 87% 29.72 in 9.0 mi West 17.3 mph 27.6 mph N/A   Overcast
10:54 AM 73.9 °F 66.9 °F 79% 29.70 in 10.0 mi West 13.8 mph 28.8 mph N/A   Mostly Cloudy
11:54 AM 73.0 °F 64.9 °F 76% 29.68 in 10.0 mi WNW 9.2 mph - N/A   Scattered Clouds
12:54 PM 73.9 °F 62.1 °F 66% 29.73 in 10.0 mi West 16.1 mph 24.2 mph N/A   Scattered Clouds
1:54 PM 75.0 °F 55.9 °F 51% 29.74 in 10.0 mi WNW 19.6 mph 34.5 mph N/A   Mostly Cloudy
2:54 PM 75.0 °F 57.9 °F 55% 29.75 in 10.0 mi WNW 15.0 mph 27.6 mph N/A   Scattered Clouds
3:54 PM 73.9 °F 55.0 °F 52% 29.75 in 10.0 mi WNW 20.7 mph 31.1 mph N/A   Partly Cloudy
4:54 PM 73.9 °F 55.9 °F 53% 29.76 in 10.0 mi West 18.4 mph 34.5 mph N/A   Mostly Cloudy
5:54 PM 72.0 °F 55.0 °F 55% 29.78 in 10.0 mi NW 17.3 mph 25.3 mph N/A   Scattered Clouds
6:54 PM 68.0 °F 55.0 °F 63% 29.81 in 10.0 mi WNW 10.4 mph - N/A   Mostly Cloudy
7:54 PM 64.9 °F 54.0 °F 68% 29.84 in 10.0 mi WNW 9.2 mph - N/A   Scattered Clouds
8:54 PM 62.1 °F 54.0 °F 75% 29.87 in 10.0 mi WNW 10.4 mph - N/A   Partly Cloudy
9:54 PM 60.1 °F 53.1 °F 78% 29.89 in 10.0 mi NW 12.7 mph - N/A   Clear
10:54 PM 59.0 °F 52.0 °F 78% 29.91 in 10.0 mi NW 16.1 mph 24.2 mph N/A   Clear
11:54 PM 57.9 °F 53.1 °F 84% 29.94 in 10.0 mi WNW 11.5 mph - N/A   Mostly Cloudy